Knox, IN

4:27 PM CDT on August 28, 2016 (GMT -0500)
Starke County

Weather History for KOXI - June, 2014

Change the Weather History Date:

Sunday, June 8, 2014

  Actual Average (KVPZ) Record (KVPZ)
Temperature  
Mean Temperature 60 °F 67 °F  
Max Temperature 90 °F 78 °F 96 °F (2011)
Min Temperature 52 °F 56 °F 43 °F (1998)
Degree Days  
Heating Degree Days 4 2  
Month to date heating degree days 22  
Since 1 June heating degree days 22  
Since 1 July heating degree days 6301  
Cooling Degree Days 0 4  
Month to date cooling degree days 29  
Year to date cooling degree days 76  
Since 1 June cooling degree days 29  
Growing Degree Days 10 (Base 50)    
Moisture  
Dew Point 56 °F    
Average Humidity 80    
Maximum Humidity 93    
Minimum Humidity 65    
Precipitation  
Precipitation 0.00 in 0.13 in 0.62 in (2015)
Month to date precipitation 1.08  
Year to date precipitation 14.06  
Sea Level Pressure  
Sea Level Pressure 29.92 in    
Wind  
Wind Speed 9 mph (NNW)    
Max Wind Speed 17 mph    
Max Gust Speed 24 mph    
Visibility 9 miles    
Events      
T = Trace of Precipitation, MM = Missing Value Source: NWS Daily Summary

Daily Weather History Graph

Daily Weather History Graph

Search for Another Location

Airport or City:

Trip Planner

Search our weather history database for the weather conditions in past years. The results will help you decide how hot, cold, wet, or windy it might be!

Date:

Astronomy

Jun. 08, 2014 Rise Set
Actual Time 5:13 AM CDT 8:18 PM CDT
Civil Twilight 4:39 AM CDT 8:51 PM CDT
Nautical Twilight 3:57 AM CDT 9:34 PM CDT
Astronomical Twilight 3:06 AM CDT 10:25 PM CDT
Moon 3:33 PM CDT (6/8) 2:09 AM CDT (6/8)
Length of Visible Light 16h 11m
Length of Day
15h 04m
Waxing Gibbous, 77% of the Moon is Illuminated
Jun 8
Waxing Gibbous
Jun 12
Full
Jun 19
Last Quarter
Jun 27
New
Jul 5
First Quarter

Hourly Weather History & Observations

Time (CDT) Temp. Dew Point Humidity Pressure Visibility Wind Dir Wind Speed Gust Speed Precip Events Conditions
12:15 AM 67.3 °F 59.4 °F 76% 29.80 in 7.0 mi Calm Calm - N/A   Overcast
12:35 AM 66.2 °F 60.6 °F 82% 29.80 in 10.0 mi NNW 3.5 mph - N/A   Overcast
1:15 AM 65.8 °F 61.2 °F 85% 29.79 in 7.0 mi WNW 4.6 mph - N/A   Overcast
1:35 AM 65.3 °F 60.4 °F 84% 29.79 in 5.0 mi SW 6.9 mph - N/A   Overcast
1:55 AM 63.7 °F 60.1 °F 88% 29.79 in 4.0 mi SW 5.8 mph - N/A   Overcast
2:15 AM 63.1 °F 60.4 °F 91% 29.79 in 4.0 mi West 5.8 mph - N/A   Overcast
2:35 AM 63.0 °F 60.8 °F 93% 29.79 in 4.0 mi NW 5.8 mph - N/A   Overcast
2:55 AM 61.7 °F 59.5 °F 93% 29.79 in 5.0 mi North 11.5 mph - N/A   Overcast
3:15 AM 61.0 °F 59.0 °F 93% 29.81 in 4.0 mi North 10.4 mph - N/A   Overcast
3:35 AM 59.9 °F 57.7 °F 93% 29.82 in 3.0 mi North 11.5 mph - N/A   Overcast
4:15 AM 58.1 °F 55.9 °F 93% 29.82 in 5.0 mi North 17.3 mph 20.7 mph N/A   Overcast
4:35 AM 58.3 °F 56.1 °F 93% 29.82 in 7.0 mi NNE 16.1 mph 21.9 mph N/A   Overcast
4:55 AM 58.8 °F 56.5 °F 92% 29.79 in 7.0 mi ENE 17.3 mph 20.7 mph N/A   Overcast
5:15 AM 59.5 °F 56.5 °F 90% 29.79 in 5.0 mi NNE 17.3 mph 24.2 mph N/A   Overcast
5:35 AM 59.4 °F 56.5 °F 90% 29.82 in 7.0 mi North 12.7 mph 19.6 mph N/A   Overcast
5:55 AM 59.7 °F 57.0 °F 91% 29.83 in 7.0 mi North 13.8 mph - N/A   Overcast
6:15 AM 59.7 °F 56.8 °F 90% 29.84 in 7.0 mi North 12.7 mph - N/A   Overcast
6:35 AM 59.2 °F 56.5 °F 91% 29.84 in 7.0 mi North 11.5 mph 17.3 mph N/A   Overcast
6:55 AM 59.5 °F 56.8 °F 91% 29.84 in 10.0 mi NNE 11.5 mph - N/A   Mostly Cloudy
7:15 AM 60.1 °F 57.0 °F 90% 29.85 in 10.0 mi North 11.5 mph 17.3 mph N/A   Scattered Clouds
7:35 AM 61.9 °F 57.9 °F 87% 29.87 in 10.0 mi NNE 11.5 mph - N/A   Clear
7:55 AM 64.0 °F 58.5 °F 82% 29.89 in 10.0 mi North 10.4 mph - N/A   Scattered Clouds
8:15 AM 65.1 °F 58.8 °F 80% 29.88 in 10.0 mi North 12.7 mph - N/A   Scattered Clouds
8:35 AM 65.7 °F 58.8 °F 79% 29.91 in 10.0 mi North 9.2 mph - N/A   Mostly Cloudy
8:55 AM 65.8 °F 58.6 °F 78% 29.91 in 10.0 mi North 10.4 mph - N/A   Overcast
9:15 AM 67.3 °F 58.8 °F 74% 29.90 in 10.0 mi NNE 11.5 mph - N/A   Mostly Cloudy
9:35 AM 67.3 °F 59.0 °F 75% 29.91 in 10.0 mi NW 11.5 mph 19.6 mph N/A   Scattered Clouds
9:55 AM 63.9 °F 58.3 °F 82% 29.92 in 10.0 mi NW 13.8 mph - N/A   Scattered Clouds
10:15 AM 63.1 °F 57.7 °F 83% 29.92 in 10.0 mi NNW 12.7 mph - N/A   Scattered Clouds
10:35 AM 63.7 °F 57.4 °F 80% 29.92 in 10.0 mi NNW 12.7 mph - N/A   Scattered Clouds
10:55 AM 65.1 °F 58.3 °F 78% 29.93 in 10.0 mi NNW 16.1 mph - N/A   Clear
11:15 AM 65.1 °F 57.9 °F 77% 29.93 in 10.0 mi NNW 15.0 mph 21.9 mph N/A   Clear
11:35 AM 65.7 °F 58.5 °F 78% 29.94 in 10.0 mi NNW 16.1 mph 19.6 mph N/A   Clear
11:55 AM 66.4 °F 58.5 °F 76% 29.94 in 10.0 mi North 12.7 mph 18.4 mph N/A   Clear
12:15 PM 67.1 °F 58.8 °F 75% 29.95 in 10.0 mi NNW 13.8 mph - N/A   Clear
12:35 PM 68.2 °F 58.8 °F 72% 29.96 in 10.0 mi NNW 12.7 mph 18.4 mph N/A   Clear
12:55 PM 68.2 °F 58.5 °F 71% 29.96 in 10.0 mi NW 11.5 mph - N/A   Clear
1:15 PM 67.3 °F 57.9 °F 72% 29.97 in 10.0 mi WNW 12.7 mph 17.3 mph N/A   Clear
1:35 PM 66.2 °F 57.6 °F 74% 29.97 in 10.0 mi NW 13.8 mph - N/A   Clear
1:55 PM 66.2 °F 57.2 °F 73% 29.96 in 10.0 mi NW 12.7 mph 18.4 mph N/A   Clear
2:15 PM 66.2 °F 56.5 °F 71% 29.97 in 10.0 mi NNW 12.7 mph 18.4 mph N/A   Clear
2:35 PM 66.6 °F 55.4 °F 67% 29.97 in 10.0 mi NNW 17.3 mph - N/A   Clear
2:55 PM 67.5 °F 55.2 °F 65% 29.96 in 10.0 mi NNW 13.8 mph - N/A   Clear
3:15 PM 67.8 °F 55.9 °F 66% 29.97 in 10.0 mi NNW 13.8 mph 19.6 mph N/A   Clear
3:35 PM 66.9 °F 54.7 °F 65% 29.98 in 10.0 mi NW 13.8 mph 19.6 mph N/A   Clear
3:55 PM 65.8 °F 54.3 °F 66% 29.98 in 10.0 mi NW 11.5 mph - N/A   Clear
4:15 PM 65.3 °F 54.3 °F 68% 29.97 in 10.0 mi NNW 13.8 mph 19.6 mph N/A   Clear
4:35 PM 65.1 °F 54.1 °F 68% 29.97 in 10.0 mi NW 9.2 mph - N/A   Clear
4:55 PM 64.4 °F 54.1 °F 69% 29.98 in 10.0 mi NNW 10.4 mph - N/A   Clear
5:15 PM 63.7 °F 54.0 °F 71% 29.98 in 10.0 mi NW 10.4 mph - N/A   Clear
5:35 PM 63.5 °F 53.8 °F 71% 29.99 in 10.0 mi NNW 10.4 mph - N/A   Clear
5:55 PM 63.3 °F 53.6 °F 71% 29.98 in 10.0 mi NNW 12.7 mph - N/A   Clear
6:15 PM 62.4 °F 53.1 °F 71% 29.98 in 10.0 mi NNW 10.4 mph - N/A   Clear
6:35 PM 61.3 °F 52.3 °F 72% 29.98 in 10.0 mi North 12.7 mph - N/A   Clear
6:55 PM 60.4 °F 52.0 °F 74% 29.99 in 10.0 mi NNW 10.4 mph - N/A   Clear
7:15 PM 59.9 °F 52.0 °F 75% 30.00 in 10.0 mi NNW 10.4 mph - N/A   Clear
7:35 PM 59.2 °F 51.6 °F 76% 30.00 in 10.0 mi NNW 5.8 mph - N/A   Clear
7:55 PM 58.5 °F 51.3 °F 77% 30.01 in 10.0 mi North 8.1 mph - N/A   Clear
8:15 PM 57.6 °F 50.7 °F 78% 30.00 in 10.0 mi North 6.9 mph - N/A   Clear
8:35 PM 56.7 °F 50.2 °F 79% 30.00 in 10.0 mi North 6.9 mph - N/A   Clear
8:55 PM 55.8 °F 50.0 °F 81% 30.01 in 10.0 mi North 8.1 mph - N/A   Clear
9:15 PM 55.4 °F 50.0 °F 82% 30.01 in 10.0 mi NNW 4.6 mph - N/A   Clear
9:35 PM 55.4 °F 50.2 °F 83% 30.02 in 10.0 mi NW 5.8 mph - N/A   Clear
9:55 PM 54.9 °F 50.2 °F 84% 30.02 in 10.0 mi NW 4.6 mph - N/A   Clear
10:15 PM 54.5 °F 49.8 °F 84% 30.02 in 10.0 mi NW 4.6 mph - N/A   Clear
10:35 PM 54.1 °F 49.6 °F 85% 30.02 in 10.0 mi NW 4.6 mph - N/A   Clear
10:55 PM 54.0 °F 49.5 °F 85% 30.02 in 10.0 mi NW 4.6 mph - N/A   Clear
11:15 PM 53.6 °F 49.3 °F 85% 30.02 in 10.0 mi WNW 4.6 mph - N/A   Clear
11:35 PM 53.2 °F 48.9 °F 85% 30.02 in 10.0 mi NW 4.6 mph - N/A   Clear
11:55 PM 52.9 °F 48.6 °F 85% 30.02 in 10.0 mi Calm Calm - N/A   Clear